Location: Round Knob
(37.2473°N, 88.7376°W)
Time: 12:45:42
(UTC+00:00)

Envisat - Visible Passes

Search period start: 20 September 2021 00:00
Search period end: 30 September 2021 00:00
Orbit: 764 x 766 km, 98.2° (Epoch: 20 September)

Date Brightness Start Highest point End Pass type
(mag) Time Alt. Az. Time Alt. Az. Time Alt. Az.
20 Sep 4.6 10:28:26 10° NNE 10:33:07 36° E 10:37:46 10° SSE visible
21 Sep 5.9 09:53:00 10° NE 09:56:01 16° E 09:58:59 10° SE visible
22 Sep 3.5 10:53:27 10° NNE 10:58:32 66° ESE 11:03:33 10° S visible
23 Sep 5.1 10:17:12 10° NE 10:21:33 28° E 10:25:52 10° SSE visible
24 Sep 6.1 09:42:34 10° ENE 09:44:23 12° E 09:46:11 10° ESE visible
25 Sep 4.0 10:42:02 10° NNE 10:47:00 51° E 10:51:55 10° S visible
26 Sep 5.5 10:06:03 10° NE 10:09:57 22° E 10:13:50 10° SE visible
27 Sep 3.0 11:07:14 10° NNE 11:12:20 88° WNW 11:17:25 10° SSW visible
28 Sep 4.5 10:30:41 10° NNE 10:35:26 39° E 10:40:10 10° SSE visible
29 Sep 5.9 09:55:06 10° NE 09:58:21 17° E 10:01:36 10° SE visible
